This is the latest recevied weather packets stored in our database for station/object KG5WBN. If no packets are shown the sender has not sent any weather packets the latest 10 day(s).
| Time | Temp. | Humidity | Pressure | Rain* | Wind** | Luminosity | Snow |
|---|---|---|---|---|---|---|---|
| 1787423545 | 35° C | 42% | 1015.2 hPa | 0 mm | - | 372 W/m² | - |
| 1787423240 | 35° C | 42% | 1015.2 hPa | 0 mm | - | 369 W/m² | - |
| 1787422936 | 34.44° C | 42% | 1015.6 hPa | 0 mm | - | 365 W/m² | - |
| 1787422632 | 34.44° C | 42% | 1015.6 hPa | 0 mm | - | 365 W/m² | - |
| 1787422328 | 34.44° C | 42% | 1015.2 hPa | 0 mm | - | 362 W/m² | - |
| 1787422024 | 34.44° C | 42% | 1015.2 hPa | 0 mm | - | 359 W/m² | - |
| 1787421720 | 34.44° C | 42% | 1015.6 hPa | 0 mm | - | 357 W/m² | - |
| 1787421415 | 33.89° C | 42% | 1015.6 hPa | 0 mm | - | 356 W/m² | - |
| 1787421110 | 34.44° C | 42% | 1015.2 hPa | 0 mm | - | 353 W/m² | - |
| 1787420806 | 33.89° C | 43% | 1015.6 hPa | 0 mm | - | 348 W/m² | - |
| 1787420502 | 33.89° C | 43% | 1015.6 hPa | 0 mm | - | 307 W/m² | - |
| 1787420198 | 33.89° C | 43% | 1015.6 hPa | 0 mm | - | 345 W/m² | - |
| 1787419894 | 33.33° C | 45% | 1015.6 hPa | 0 mm | - | 343 W/m² | - |
| 1787419590 | 33.33° C | 53% | 1015.6 hPa | 0 mm | - | 338 W/m² | - |
| 1787419290 | 33.33° C | 53% | 1015.9 hPa | 0 mm | - | 336 W/m² | - |
| 1787418986 | 33.89° C | 53% | 1015.9 hPa | 0 mm | - | 336 W/m² | - |
| 1787418686 | 33.33° C | 53% | 1015.9 hPa | 0 mm | - | 333 W/m² | - |
| 1787418383 | 32.78° C | 54% | 1016.3 hPa | 0 mm | - | 333 W/m² | - |
| 1787418079 | 32.78° C | 54% | 1015.9 hPa | 0 mm | - | 332 W/m² | - |
| 1787417774 | 33.33° C | 53% | 1016.3 hPa | 0 mm | - | 327 W/m² | - |
| 1787417474 | 32.78° C | 54% | 1015.9 hPa | 0 mm | - | 324 W/m² | - |
| 1787417169 | 32.78° C | 54% | 1015.6 hPa | 0 mm | - | 322 W/m² | - |
| 1787416865 | 32.78° C | 55% | 1016.3 hPa | 0 mm | - | 288 W/m² | - |
| 1787416561 | 32.22° C | 55% | 1015.9 hPa | 0 mm | - | 305 W/m² | - |
| 1787416256 | 33.33° C | 54% | 1016.3 hPa | 0 mm | - | 312 W/m² | - |
* Rain latest hour (hover to see other rain measurements)
** Current wind speed in m/s (hover to see current wind gust speed)